Time,TemperatureF,DewpointF,PressureIn,WindDirection,WindDirectionDegrees,WindSpeedMPH,WindSpeedGustMPH,Humidity,HourlyPrecipIn,Conditions,Clouds,dailyrainin,SoftwareType,DateUTC
2013-02-01 00:00:00,27.4,14.5,29.83,SSE,158,1.8,3.8,58,0.00,,,0.00,WUHU216HW,2013-02-01 05:00:00,
2013-02-01 00:08:00,27.2,14.3,29.83,SSW,203,0.2,3.8,58,0.01,,,0.01,WUHU216HW,2013-02-01 05:08:00,
2013-02-01 00:10:00,27.2,14.3,29.83,West,270,2.0,2.9,58,0.00,,,0.00,WUHU216HW,2013-02-01 05:10:00,
2013-02-01 00:18:00,27.2,14.7,29.83,WSW,248,1.3,2.0,59,0.01,,,0.01,WUHU216HW,2013-02-01 05:18:00,
2013-02-01 00:28:00,27.0,14.5,29.83,WSW,248,0.2,4.7,59,0.01,,,0.01,WUHU216HW,2013-02-01 05:28:00,
2013-02-01 00:34:00,27.0,14.9,29.83,WSW,248,1.1,4.7,60,0.00,,,0.00,WUHU216HW,2013-02-01 05:34:00,
2013-02-01 00:41:00,27.0,14.9,29.83,WSW,248,0.7,2.2,60,2.59,,,0.01,WUHU216HW,2013-02-01 05:41:00,
2013-02-01 00:48:00,27.0,14.9,29.83,NW,315,1.1,2.2,60,0.01,,,0.01,WUHU216HW,2013-02-01 05:48:00,
2013-02-01 00:54:00,27.0,14.9,29.84,WSW,248,2.5,4.0,60,0.00,,,0.00,WUHU216HW,2013-02-01 05:54:00,
2013-02-01 01:01:00,27.0,14.9,29.83,WSW,248,0.9,5.1,60,0.00,,,0.01,WUHU216HW,2013-02-01 06:01:00,
2013-02-01 01:08:00,27.0,14.9,29.83,NW,315,4.0,4.7,60,0.01,,,0.02,WUHU216HW,2013-02-01 06:08:00,
2013-02-01 01:14:00,27.0,15.3,29.83,SW,225,0.4,4.7,61,0.00,,,0.00,WUHU216HW,2013-02-01 06:14:00,
2013-02-01 01:21:00,27.0,15.3,29.83,WNW,293,1.8,2.5,61,2.59,,,0.02,WUHU216HW,2013-02-01 06:21:00,
2013-02-01 01:28:00,27.0,15.3,29.84,WNW,293,1.1,3.1,61,0.01,,,0.02,WUHU216HW,2013-02-01 06:28:00,
2013-02-01 01:34:00,26.8,15.1,29.83,WSW,248,0.7,3.1,61,0.00,,,0.00,WUHU216HW,2013-02-01 06:34:00,
2013-02-01 01:41:00,27.0,15.7,29.83,WSW,248,0.7,2.5,62,2.59,,,0.02,WUHU216HW,2013-02-01 06:41:00,
2013-02-01 01:48:00,27.0,15.7,29.83,SSW,203,1.8,2.7,62,0.01,,,0.02,WUHU216HW,2013-02-01 06:48:00,
2013-02-01 01:54:00,27.0,15.3,29.83,WSW,248,0.7,2.0,61,0.00,,,0.00,WUHU216HW,2013-02-01 06:54:00,
2013-02-01 02:01:00,26.8,15.5,29.83,NNE,23,0.7,2.0,62,2.59,,,0.02,WUHU216HW,2013-02-01 07:01:00,
2013-02-01 02:08:00,26.6,15.3,29.83,West,270,0.4,3.1,62,0.01,,,0.03,WUHU216HW,2013-02-01 07:08:00,
2013-02-01 02:14:00,26.6,15.3,29.83,WNW,293,0.7,1.8,62,0.00,,,0.00,WUHU216HW,2013-02-01 07:14:00,
2013-02-01 02:21:00,26.5,15.1,29.83,WSW,248,0.4,0.9,62,2.59,,,0.03,WUHU216HW,2013-02-01 07:21:00,
2013-02-01 02:28:00,26.3,14.6,29.83,West,270,0.4,0.9,61,0.01,,,0.03,WUHU216HW,2013-02-01 07:28:00,
2013-02-01 02:34:00,26.1,14.5,29.83,WNW,293,0.0,0.7,61,0.00,,,0.00,WUHU216HW,2013-02-01 07:34:00,
2013-02-01 02:41:00,25.9,14.7,29.83,West,270,0.0,0.9,62,2.59,,,0.03,WUHU216HW,2013-02-01 07:41:00,
2013-02-01 02:48:00,25.7,14.5,29.82,WSW,248,0.7,0.7,62,0.01,,,0.03,WUHU216HW,2013-02-01 07:48:00,
2013-02-01 02:54:00,25.6,14.3,29.82,SW,225,0.0,0.7,62,0.00,,,0.00,WUHU216HW,2013-02-01 07:54:00,
2013-02-01 03:02:00,25.4,14.1,29.82,SSW,203,0.0,0.4,62,2.59,,,0.03,WUHU216HW,2013-02-01 08:02:00,
2013-02-01 03:08:00,25.2,14.3,29.82,West,270,0.0,0.0,63,0.01,,,0.04,WUHU216HW,2013-02-01 08:08:00,
2013-02-01 03:14:00,25.0,14.1,29.82,WSW,248,0.0,0.0,63,0.00,,,0.00,WUHU216HW,2013-02-01 08:14:00,
2013-02-01 03:22:00,24.8,14.0,29.82,WSW,248,0.0,0.0,63,2.59,,,0.04,WUHU216HW,2013-02-01 08:22:00,
2013-02-01 03:28:00,24.5,14.0,29.82,WSW,248,0.0,0.2,64,0.01,,,0.04,WUHU216HW,2013-02-01 08:28:00,
2013-02-01 03:34:00,24.5,14.0,29.83,WSW,248,0.0,0.2,64,0.00,,,0.00,WUHU216HW,2013-02-01 08:34:00,
2013-02-01 03:42:00,24.3,14.1,29.83,WSW,248,0.0,0.2,65,2.59,,,0.04,WUHU216HW,2013-02-01 08:42:00,
2013-02-01 03:48:00,24.3,14.1,29.82,West,270,0.0,0.4,65,0.01,,,0.04,WUHU216HW,2013-02-01 08:48:00,
2013-02-01 03:54:00,24.1,14.3,29.83,West,270,0.0,0.4,66,0.00,,,0.00,WUHU216HW,2013-02-01 08:54:00,
2013-02-01 04:02:00,24.1,14.7,29.83,NNW,338,0.4,0.7,67,2.59,,,0.05,WUHU216HW,2013-02-01 09:02:00,
2013-02-01 04:08:00,24.1,14.7,29.82,WNW,293,0.0,0.4,67,0.01,,,0.05,WUHU216HW,2013-02-01 09:08:00,
2013-02-01 04:14:00,23.9,14.1,29.82,West,270,0.0,0.4,66,0.00,,,0.00,WUHU216HW,2013-02-01 09:14:00,
2013-02-01 04:22:00,23.8,14.1,29.82,WSW,248,0.4,0.4,66,2.59,,,0.05,WUHU216HW,2013-02-01 09:22:00,
2013-02-01 04:28:00,23.9,14.5,29.83,West,270,0.4,0.4,67,0.01,,,0.05,WUHU216HW,2013-02-01 09:28:00,
2013-02-01 04:34:00,23.9,14.5,29.83,West,270,0.0,0.4,67,0.00,,,0.00,WUHU216HW,2013-02-01 09:34:00,
2013-02-01 04:42:00,23.9,14.5,29.83,West,270,0.0,0.4,67,2.59,,,0.05,WUHU216HW,2013-02-01 09:42:00,
2013-02-01 04:48:00,24.1,14.7,29.83,West,270,0.0,0.9,67,0.01,,,0.05,WUHU216HW,2013-02-01 09:48:00,
2013-02-01 04:54:00,24.1,14.7,29.83,WSW,248,0.0,0.9,67,0.00,,,0.00,WUHU216HW,2013-02-01 09:54:00,
2013-02-01 05:02:00,24.1,14.7,29.83,WSW,248,0.0,1.8,67,2.59,,,0.06,WUHU216HW,2013-02-01 10:02:00,
2013-02-01 05:08:00,24.1,15.0,29.83,West,270,0.4,1.8,68,0.01,,,0.06,WUHU216HW,2013-02-01 10:08:00,
2013-02-01 05:14:00,24.1,15.0,29.83,West,270,0.0,0.4,68,0.00,,,0.00,WUHU216HW,2013-02-01 10:14:00,
2013-02-01 05:23:00,24.3,14.9,29.84,WSW,248,0.0,0.9,67,2.59,,,0.06,WUHU216HW,2013-02-01 10:23:00,
2013-02-01 05:28:00,24.3,15.2,29.84,West,270,0.2,0.9,68,0.01,,,0.06,WUHU216HW,2013-02-01 10:28:00,
2013-02-01 05:34:00,24.5,15.4,29.84,SW,225,0.0,0.9,68,0.00,,,0.00,WUHU216HW,2013-02-01 10:34:00,
2013-02-01 05:43:00,24.5,15.4,29.85,WSW,248,0.4,0.4,68,2.59,,,0.06,WUHU216HW,2013-02-01 10:43:00,
2013-02-01 05:48:00,24.7,15.6,29.85,WSW,248,0.0,0.4,68,0.01,,,0.06,WUHU216HW,2013-02-01 10:48:00,
2013-02-01 05:54:00,24.7,15.6,29.85,West,270,0.0,0.7,68,0.00,,,0.00,WUHU216HW,2013-02-01 10:54:00,
2013-02-01 06:03:00,24.7,15.6,29.86,WSW,248,0.4,0.4,68,2.59,,,0.07,WUHU216HW,2013-02-01 11:03:00,
2013-02-01 06:08:00,24.7,15.6,29.86,WSW,248,0.0,0.4,68,0.01,,,0.07,WUHU216HW,2013-02-01 11:08:00,
2013-02-01 06:14:00,24.7,15.6,29.86,West,270,0.0,0.4,68,0.00,,,0.00,WUHU216HW,2013-02-01 11:14:00,
2013-02-01 06:23:00,24.7,15.6,29.86,WSW,248,0.2,1.1,68,2.59,,,0.07,WUHU216HW,2013-02-01 11:23:00,
2013-02-01 06:28:00,24.7,15.6,29.86,WSW,248,0.0,0.7,68,0.01,,,0.07,WUHU216HW,2013-02-01 11:28:00,
2013-02-01 06:34:00,24.5,15.4,29.86,WNW,293,0.0,0.4,68,0.00,,,0.00,WUHU216HW,2013-02-01 11:34:00,
2013-02-01 06:43:00,24.5,15.4,29.86,WNW,293,0.0,0.2,68,2.59,,,0.07,WUHU216HW,2013-02-01 11:43:00,
2013-02-01 06:49:00,24.3,15.2,29.86,WNW,293,0.0,0.2,68,0.01,,,0.07,WUHU216HW,2013-02-01 11:49:00,
2013-02-01 06:54:00,24.3,15.2,29.87,WSW,248,0.0,0.4,68,0.00,,,0.00,WUHU216HW,2013-02-01 11:54:00,
2013-02-01 07:03:00,24.5,15.4,29.87,WSW,248,0.4,1.3,68,2.59,,,0.08,WUHU216HW,2013-02-01 12:03:00,
2013-02-01 07:09:00,24.8,15.4,29.87,WSW,248,0.4,3.8,67,0.01,,,0.08,WUHU216HW,2013-02-01 12:09:00,
2013-02-01 07:14:00,25.6,14.7,29.87,NW,315,1.8,4.0,63,0.00,,,0.00,WUHU216HW,2013-02-01 12:14:00,
2013-02-01 07:24:00,25.9,14.3,29.87,West,270,2.0,2.5,61,2.59,,,0.08,WUHU216HW,2013-02-01 12:24:00,
2013-02-01 07:29:00,26.1,14.5,29.87,West,270,2.2,2.7,61,0.01,,,0.08,WUHU216HW,2013-02-01 12:29:00,
2013-02-01 07:34:00,26.3,14.6,29.87,NW,315,2.5,3.4,61,0.00,,,0.00,WUHU216HW,2013-02-01 12:34:00,
2013-02-01 07:44:00,26.5,14.8,29.87,West,270,2.9,2.9,61,2.59,,,0.08,WUHU216HW,2013-02-01 12:44:00,
2013-02-01 07:49:00,26.5,14.4,29.87,West,270,3.4,3.4,60,0.01,,,0.08,WUHU216HW,2013-02-01 12:49:00,
2013-02-01 07:54:00,26.5,14.1,29.87,NW,315,2.2,6.3,59,2.59,,,0.08,WUHU216HW,2013-02-01 12:54:00,
2013-02-01 07:59:00,26.6,13.8,29.88,NW,315,2.9,6.3,58,0.01,,,0.08,WUHU216HW,2013-02-01 12:59:00,
2013-02-01 08:04:00,26.6,13.8,29.87,North,0,2.0,3.8,58,2.59,,,0.09,WUHU216HW,2013-02-01 13:04:00,
2013-02-01 08:14:00,26.6,13.3,29.87,North,0,1.1,3.6,57,2.59,,,0.09,WUHU216HW,2013-02-01 13:14:00,
2013-02-01 08:24:00,26.6,14.1,29.88,NW,315,4.0,5.4,59,2.59,,,0.09,WUHU216HW,2013-02-01 13:24:00,
2013-02-01 08:34:00,26.5,14.4,29.89,SSW,203,1.1,2.9,60,2.59,,,0.09,WUHU216HW,2013-02-01 13:34:00,
2013-02-01 08:44:00,26.5,14.4,29.89,North,0,1.1,5.1,60,2.59,,,0.09,WUHU216HW,2013-02-01 13:44:00,
2013-02-01 08:54:00,26.6,14.6,29.89,WNW,293,1.6,2.7,60,2.59,,,0.09,WUHU216HW,2013-02-01 13:54:00,
2013-02-01 09:04:00,26.8,14.0,29.90,North,0,0.9,3.4,58,2.59,,,0.10,WUHU216HW,2013-02-01 14:04:00,
2013-02-01 09:14:00,26.8,13.5,29.90,NW,315,2.2,3.8,57,2.59,,,0.10,WUHU216HW,2013-02-01 14:14:00,
2013-02-01 09:24:00,27.0,13.3,29.91,NNW,338,1.3,3.1,56,2.59,,,0.10,WUHU216HW,2013-02-01 14:24:00,
2013-02-01 09:34:00,27.2,13.1,29.91,NNW,338,4.0,4.0,55,0.00,,,0.00,WUHU216HW,2013-02-01 14:34:00,
2013-02-01 09:45:00,27.2,12.6,29.91,WSW,248,3.1,5.4,54,0.00,,,0.00,WUHU216HW,2013-02-01 14:45:00,
2013-02-01 09:55:00,27.4,12.4,29.91,West,270,3.4,7.6,53,0.00,,,0.00,WUHU216HW,2013-02-01 14:55:00,
2013-02-01 10:05:00,27.4,12.0,29.91,NNW,338,3.1,5.4,52,0.00,,,0.00,WUHU216HW,2013-02-01 15:05:00,
2013-02-01 10:15:00,27.5,11.8,29.91,WNW,293,1.6,4.7,51,0.00,,,0.00,WUHU216HW,2013-02-01 15:15:00,
2013-02-01 10:25:00,27.4,11.2,29.92,WSW,248,2.5,5.4,50,0.00,,,0.00,WUHU216HW,2013-02-01 15:25:00,
2013-02-01 10:35:00,27.7,11.0,29.92,North,0,2.5,5.4,49,0.00,,,0.00,WUHU216HW,2013-02-01 15:35:00,
2013-02-01 10:45:00,27.7,11.5,29.92,NNW,338,0.9,5.1,50,0.00,,,0.00,WUHU216HW,2013-02-01 15:45:00,
2013-02-01 10:55:00,27.7,10.5,29.92,NNE,23,4.7,7.2,48,0.00,,,0.00,WUHU216HW,2013-02-01 15:55:00,
2013-02-01 11:05:00,28.1,11.3,29.92,North,0,3.6,4.5,49,0.00,,,0.00,WUHU216HW,2013-02-01 16:05:00,
2013-02-01 11:15:00,28.3,10.5,29.91,NW,315,3.4,6.9,47,0.00,,,0.00,WUHU216HW,2013-02-01 16:15:00,
2013-02-01 11:25:00,28.3,9.5,29.92,NW,315,1.8,5.1,45,0.00,,,0.00,WUHU216HW,2013-02-01 16:25:00,
2013-02-01 11:35:00,28.3,9.5,29.91,North,0,4.5,4.5,45,0.00,,,0.00,WUHU216HW,2013-02-01 16:35:00,
2013-02-01 11:45:00,28.6,10.9,29.91,West,270,1.8,4.0,47,0.00,,,0.00,WUHU216HW,2013-02-01 16:45:00,
2013-02-01 11:55:00,28.3,9.5,29.91,NNE,23,1.6,11.0,45,0.00,,,0.00,WUHU216HW,2013-02-01 16:55:00,
2013-02-01 12:05:00,28.1,9.4,29.92,NW,315,6.5,6.5,45,0.00,,,0.00,WUHU216HW,2013-02-01 17:05:00,
2013-02-01 12:15:00,28.3,8.6,29.91,North,0,5.4,11.4,43,0.00,,,0.00,WUHU216HW,2013-02-01 17:15:00,
2013-02-01 12:25:00,28.4,8.2,29.91,NNW,338,2.0,7.8,42,0.00,,,0.00,WUHU216HW,2013-02-01 17:25:00,
2013-02-01 12:35:00,28.4,8.7,29.91,NNW,338,2.5,4.3,43,0.00,,,0.00,WUHU216HW,2013-02-01 17:35:00,
2013-02-01 12:45:00,28.3,8.0,29.92,NW,315,2.2,7.2,42,0.00,,,0.00,WUHU216HW,2013-02-01 17:45:00,
2013-02-01 12:55:00,28.8,8.0,29.92,WNW,293,4.0,6.0,41,0.00,,,0.00,WUHU216HW,2013-02-01 17:55:00,
2013-02-01 13:05:00,29.2,7.8,29.92,WSW,248,6.9,7.4,40,0.00,,,0.00,WUHU216HW,2013-02-01 18:05:00,
2013-02-01 13:15:00,28.6,6.1,29.93,NNW,338,1.6,4.9,38,0.00,,,0.00,WUHU216HW,2013-02-01 18:15:00,
2013-02-01 13:25:00,28.8,6.3,29.93,NE,45,4.0,7.2,38,0.00,,,0.00,WUHU216HW,2013-02-01 18:25:00,
2013-02-01 13:35:00,29.2,7.2,29.93,NNW,338,3.4,9.6,39,0.00,,,0.00,WUHU216HW,2013-02-01 18:35:00,
2013-02-01 13:45:00,29.2,7.2,29.94,North,0,4.7,10.5,39,0.00,,,0.00,WUHU216HW,2013-02-01 18:45:00,
2013-02-01 13:55:00,30.2,9.4,29.94,North,0,4.5,9.8,41,0.00,,,0.00,WUHU216HW,2013-02-01 18:55:00,
2013-02-01 14:05:00,29.9,9.0,29.95,NNW,338,7.6,7.6,41,0.00,,,0.00,WUHU216HW,2013-02-01 19:05:00,
2013-02-01 14:15:00,29.2,10.9,29.95,North,0,2.5,6.9,46,0.00,,,0.00,WUHU216HW,2013-02-01 19:15:00,
2013-02-01 14:25:00,29.3,8.6,29.95,NW,315,4.7,6.7,41,0.00,,,0.00,WUHU216HW,2013-02-01 19:25:00,
2013-02-01 14:35:00,29.2,9.4,29.96,NW,315,2.5,8.9,43,0.00,,,0.00,WUHU216HW,2013-02-01 19:35:00,
2013-02-01 14:45:00,28.8,10.1,29.97,WNW,293,4.7,4.7,45,0.00,,,0.00,WUHU216HW,2013-02-01 19:45:00,
2013-02-01 14:55:00,28.3,11.1,29.97,NW,315,2.9,7.2,48,0.00,,,0.00,WUHU216HW,2013-02-01 19:55:00,
2013-02-01 15:05:00,27.9,11.7,29.99,NW,315,3.4,5.8,50,0.00,,,0.00,WUHU216HW,2013-02-01 20:05:00,
2013-02-01 15:15:00,27.4,11.2,29.99,NW,315,4.3,4.3,50,0.00,,,0.00,WUHU216HW,2013-02-01 20:15:00,
2013-02-01 15:25:00,27.2,11.8,29.99,NW,315,4.7,4.7,52,0.00,,,0.00,WUHU216HW,2013-02-01 20:25:00,
2013-02-01 15:35:00,27.7,13.1,30.00,SW,225,4.7,5.4,54,0.00,,,0.00,WUHU216HW,2013-02-01 20:35:00,
2013-02-01 15:45:00,27.7,12.3,30.01,North,0,3.4,5.1,52,0.00,,,0.00,WUHU216HW,2013-02-01 20:45:00,
2013-02-01 15:55:00,25.9,18.1,30.03,WSW,248,1.6,4.9,72,0.00,,,0.00,WUHU216HW,2013-02-01 20:55:00,
2013-02-01 16:05:00,24.8,17.4,30.03,WSW,248,1.8,4.0,73,0.00,,,0.00,WUHU216HW,2013-02-01 21:05:00,
2013-02-01 16:15:00,25.0,16.2,30.03,South,180,3.4,4.0,69,0.00,,,0.00,WUHU216HW,2013-02-01 21:15:00,
2013-02-01 16:25:00,25.6,14.3,30.04,NNW,338,2.0,3.4,62,0.00,,,0.00,WUHU216HW,2013-02-01 21:25:00,
2013-02-01 16:35:00,25.6,14.7,30.05,SW,225,2.5,3.8,63,0.00,,,0.00,WUHU216HW,2013-02-01 21:35:00,
2013-02-01 16:45:00,25.4,15.2,30.06,NW,315,1.8,3.8,65,0.00,,,0.00,WUHU216HW,2013-02-01 21:45:00,
2013-02-01 16:55:00,25.2,16.4,30.06,West,270,2.5,3.4,69,0.00,,,0.00,WUHU216HW,2013-02-01 21:55:00,
2013-02-01 17:05:00,25.2,17.1,30.07,NW,315,1.1,3.4,71,0.00,,,0.00,WUHU216HW,2013-02-01 22:05:00,
2013-02-01 17:15:00,25.0,17.2,30.08,NW,315,2.0,3.1,72,0.00,,,0.00,WUHU216HW,2013-02-01 22:15:00,
2013-02-01 17:25:00,24.8,17.0,30.08,NW,315,0.9,2.9,72,0.00,,,0.00,WUHU216HW,2013-02-01 22:25:00,
2013-02-01 17:35:00,25.0,17.2,30.09,North,0,0.4,3.6,72,0.00,,,0.00,WUHU216HW,2013-02-01 22:35:00,
2013-02-01 17:45:00,25.0,17.2,30.10,NNW,338,0.4,4.9,72,0.00,,,0.00,WUHU216HW,2013-02-01 22:45:00,
2013-02-01 17:55:00,24.1,18.9,30.11,WNW,293,3.1,4.0,80,0.00,,,0.00,WUHU216HW,2013-02-01 22:55:00,
2013-02-01 18:05:00,23.6,18.4,30.12,NW,315,0.0,1.8,80,0.00,,,0.00,WUHU216HW,2013-02-01 23:05:00,
2013-02-01 18:15:00,23.0,18.1,30.12,NW,315,0.2,2.5,81,0.00,,,0.00,WUHU216HW,2013-02-01 23:15:00,
2013-02-01 18:25:00,22.9,17.6,30.13,NW,315,0.7,1.1,80,0.00,,,0.00,WUHU216HW,2013-02-01 23:25:00,
2013-02-01 18:35:00,22.7,16.8,30.14,WSW,248,0.2,1.1,78,0.00,,,0.00,WUHU216HW,2013-02-01 23:35:00,
2013-02-01 18:45:00,22.7,16.6,30.14,NNW,338,1.1,1.1,77,0.00,,,0.00,WUHU216HW,2013-02-01 23:45:00,
2013-02-01 18:55:00,22.9,16.4,30.14,WSW,248,1.6,2.5,76,0.00,,,0.00,WUHU216HW,2013-02-01 23:55:00,
2013-02-01 19:05:00,22.9,16.1,30.15,West,270,0.9,1.1,75,0.00,,,0.00,WUHU216HW,2013-02-02 00:05:00,
2013-02-01 19:15:00,22.9,16.1,30.16,NW,315,0.7,1.1,75,0.00,,,0.00,WUHU216HW,2013-02-02 00:15:00,
2013-02-01 19:25:00,22.9,16.1,30.16,NW,315,0.2,1.8,75,0.00,,,0.00,WUHU216HW,2013-02-02 00:25:00,
2013-02-01 19:35:00,22.7,15.7,30.16,WSW,248,0.9,3.1,74,0.00,,,0.00,WUHU216HW,2013-02-02 00:35:00,
2013-02-01 19:45:00,22.7,16.2,30.17,NW,315,1.1,4.0,76,0.00,,,0.00,WUHU216HW,2013-02-02 00:45:00,
2013-02-01 19:55:00,22.7,15.9,30.17,WSW,248,1.1,2.5,75,0.00,,,0.00,WUHU216HW,2013-02-02 00:55:00,
2013-02-01 20:05:00,22.7,15.7,30.18,NNW,338,2.5,3.4,74,0.00,,,0.00,WUHU216HW,2013-02-02 01:05:00,
2013-02-01 20:15:00,22.7,15.7,30.18,WSW,248,3.4,4.0,74,0.00,,,0.00,WUHU216HW,2013-02-02 01:15:00,
2013-02-01 20:25:00,22.7,15.9,30.19,NW,315,3.1,3.6,75,0.00,,,0.00,WUHU216HW,2013-02-02 01:25:00,
2013-02-01 20:35:00,22.5,15.8,30.19,NNW,338,1.6,2.7,75,0.00,,,0.00,WUHU216HW,2013-02-02 01:35:00,
2013-02-01 20:45:00,22.3,15.6,30.19,NW,315,2.5,2.9,75,0.00,,,0.00,WUHU216HW,2013-02-02 01:45:00,
2013-02-01 20:55:00,22.3,15.3,30.20,WNW,293,2.5,3.4,74,0.00,,,0.00,WUHU216HW,2013-02-02 01:55:00,
2013-02-01 21:05:00,22.3,14.9,30.20,WNW,293,1.1,2.7,73,0.00,,,0.00,WUHU216HW,2013-02-02 02:05:00,
2013-02-01 21:15:00,22.5,14.9,30.20,NNW,338,0.2,4.0,72,0.00,,,0.00,WUHU216HW,2013-02-02 02:15:00,
2013-02-01 21:25:00,22.3,14.3,30.21,NW,315,2.0,2.0,71,0.00,,,0.00,WUHU216HW,2013-02-02 02:25:00,
2013-02-01 21:35:00,22.5,13.9,30.21,NW,315,2.5,2.9,69,0.00,,,0.00,WUHU216HW,2013-02-02 02:35:00,
2013-02-01 21:45:00,22.3,13.7,30.21,WSW,248,0.4,1.8,69,0.00,,,0.00,WUHU216HW,2013-02-02 02:45:00,
2013-02-01 21:55:00,22.3,13.3,30.22,NNW,338,0.0,2.2,68,0.00,,,0.00,WUHU216HW,2013-02-02 02:55:00,
2013-02-01 22:05:00,22.1,12.8,30.22,West,270,1.1,3.1,67,0.00,,,0.00,WUHU216HW,2013-02-02 03:05:00,
2013-02-01 22:15:00,22.0,12.6,30.22,West,270,2.5,2.7,67,0.00,,,0.00,WUHU216HW,2013-02-02 03:15:00,
2013-02-01 22:25:00,22.0,12.6,30.23,NW,315,2.2,2.2,67,0.00,,,0.00,WUHU216HW,2013-02-02 03:25:00,
2013-02-01 22:35:00,22.0,12.6,30.23,SW,225,1.3,3.1,67,0.00,,,0.00,WUHU216HW,2013-02-02 03:35:00,
2013-02-01 22:45:00,22.0,12.0,30.23,WSW,248,0.2,2.2,65,0.00,,,0.00,WUHU216HW,2013-02-02 03:45:00,
2013-02-01 22:55:00,21.8,11.8,30.24,WSW,248,1.1,2.5,65,0.00,,,0.00,WUHU216HW,2013-02-02 03:55:00,
2013-02-01 23:05:00,21.6,11.6,30.24,WSW,248,1.3,3.1,65,0.00,,,0.00,WUHU216HW,2013-02-02 04:05:00,
2013-02-01 23:15:00,21.6,11.6,30.24,NW,315,1.8,3.1,65,0.00,,,0.00,WUHU216HW,2013-02-02 04:15:00,
2013-02-01 23:25:00,21.4,11.4,30.24,West,270,0.7,1.8,65,0.00,,,0.00,WUHU216HW,2013-02-02 04:25:00,
2013-02-01 23:35:00,21.4,11.4,30.25,NW,315,1.1,2.0,65,0.00,,,0.00,WUHU216HW,2013-02-02 04:35:00,
2013-02-01 23:45:00,21.2,10.5,30.25,WSW,248,0.2,2.5,63,0.00,,,0.00,WUHU216HW,2013-02-02 04:45:00,
2013-02-01 23:55:00,21.1,11.1,30.25,West,270,1.8,1.8,65,0.00,,,0.00,WUHU216HW,2013-02-02 04:55:00,